Volver al catálogo

STARLINK-31188

ActivoComunicacionesVLEO
NORAD 58804·PAYLOAD·🇺🇸 United States

Lanzado Jan 15, 2024 desde Cape Canaveral Space Force Station

Loading…

Próximos Pases (próximas 24 horas)

TLE

ActualizadoSource: CelesTrak SupGP

Época: Sep 14, 2026, 20:44 UTC

1 58804C 24012T   26257.86437500 -.00011753  00000+0 -42569-3 0  2573
2 58804  43.0018 176.9978 0001182 264.2716 199.2974 15.27586396    14

Sigue STARLINK-31188 en tiempo real con AllMySat

Download on the App Store